Flag for Canada Weather past 2 weeks in Winnipeg, Manitoba, Canada

Now
41 °F

Partly sunny.


Feels Like: 32 °F
Forecast: 20 / 40 °F
Wind: 18 mph from Southeast

Location: Winnipeg Int. Airportman.


UV Index: 3 (Moderate)

Visibility: 15 mi


Pressure: 30.34 "Hg

Humidity: 31%

Dew point: 12 °F

Location of WinnipegLocation

Historic Weather in Winnipeg

°F

Winnipeg temperature yesterday

Maximum temperature yesterday: 36 °F (at 1:00 PM)
Minimum temperature yesterday: 12 °F (at 5:00 AM)
Average temperature yesterday: 25 °F

Past Weeks' High & Low Weather Summary

 TemperatureHumidityPressure
High50 °F (Apr 9, 4:00 PM)100% (Apr 3, 8:00 PM)30.47 "Hg (Apr 3, 8:00 PM)
Low9 °F (Apr 15, 6:00 AM)25% (Apr 17, 6:00 PM)29.33 "Hg (Apr 9, 4:00 PM)
Average29 °F73%30.03 "Hg
* Reported Apr 3 10:00 AM — Apr 18 10:00 AM, Winnipeg, Weather by CustomWeather, © 2014

Note: Actual official high and low records may vary slightly from our data, if they occured in-between our weather recording intervals... More about our weather records

Advertising

Historic Weather Conditions — Data for Previous 24 hours

 ConditionsComfort  
Time TempWeatherWind HumidityBarometerVisibility
10:00 AM
Apr 18
39 °FScattered clouds.15 mph33%30.34 "Hg15 mi
9:00 AM34 °FPassing clouds.10 mph41%30.35 "Hg15 mi
8:00 AM28 °FScattered clouds.9 mph51%30.35 "Hg15 mi
7:00 AM23 °FPassing clouds.5 mph63%30.36 "Hg15 mi
6:00 AM21 °FClear.2 mph58%30.37 "Hg15 mi
5:00 AM23 °FClear.5 mph54%30.36 "Hg15 mi
4:00 AM21 °FClear.3 mph58%30.37 "Hg15 mi
3:00 AM21 °FClear.6 mph63%30.37 "Hg15 mi
2:00 AM21 °FClear.5 mph68%30.38 "Hg15 mi
1:00 AM23 °FClear.No wind63%30.38 "Hg15 mi
12:00 AM25 °FClear.3 mph54%30.37 "Hg15 mi
11:00 PM
Apr 17
23 °FClear.3 mph63%30.37 "Hg15 mi
10:00 PM27 °FClear.5 mph46%30.39 "Hg15 mi
9:00 PM27 °FSunny.7 mph46%30.38 "Hg15 mi
8:00 PM30 °FSunny.7 mph37%30.38 "Hg15 mi
7:00 PM34 °FSunny.5 mph29%30.38 "Hg15 mi
6:00 PM36 °FSunny.8 mph25%30.39 "Hg15 mi
5:00 PM36 °FSunny.7 mph30%30.39 "Hg15 mi
4:00 PM36 °FSunny.8 mph30%30.40 "Hg15 mi
3:00 PM36 °FSunny.8 mph27%30.41 "Hg15 mi
2:00 PM36 °FSunny.9 mph30%30.42 "Hg15 mi
1:00 PM36 °FSunny.9 mph32%30.43 "Hg15 mi
12:00 PM34 °FSunny.8 mph48%30.44 "Hg15 mi
11:00 AM30 °FSunny.6 mph55%30.45 "Hg15 mi
Weather by CustomWeather, © 2014

See weather overview